Wind_Speed
23 23 22 22 21 21 21 20 20 20 20 19 19 19 19 19 18 18 17 16 15 15 14 13 13 12 12 12 12 12 12 12 12 13 13 13 14 14 14 14 13 13 13 13 14 13 14 14 14 15 15 16 17 17 18 19 19 20 21 21 21 21 21 22 22 23 24 24 21 18 15 14 13 14 16 19 22 21 19 18 15 13 12 13 13 13 13 13
25 25 24 24 23 23 22 22 22 22 21 21 21 21 21 20 20 20 19 18 17 17 16 15 15 14 14 14 14 14 14 14 14 15 15 15 15 16 16 16 15 15 15 16 16 16 16 16 17 17 18 18 19 19 20 21 21 22 22 22 22 22 23 24 24 25 25 24 21 16 14 13 13 14 16 19 23 22 20 20 18 15 13 12 13 14 13 14
27 27 26 26 25 25 24 24 24 23 23 23 23 23 23 22 22 21 21 20 19 19 18 18 17 17 16 16 16 16 16 16 16 17 17 17 17 17 17 17 17 17 17 18 18 18 18 19 19 19 19 20 20 21 22 22 23 23 23 24 24 24 25 26 26 25 25 23 19 15 13 14 13 14 16 19 23 23 21 21 20 18 15 13 13 14 14 14
29 29 28 28 27 27 26 26 26 25 25 25 25 25 24 24 24 23 22 22 21 21 20 20 19 19 18 18 18 18 18 18 18 18 19 19 19 19 18 18 19 19 19 19 20 20 20 20 20 21 21 21 22 22 23 24 25 25 25 26 26 27 27 27 26 25 23 20 17 14 13 15 14 15 17 19 21 22 21 21 20 20 19 16 15 15 14 14
32 31 30 30 29 29 28 28 28 27 27 27 27 27 26 26 26 25 24 24 23 23 22 22 21 21 21 20 20 20 20 21 20 20 20 20 20 20 20 20 20 20 20 21 21 21 21 22 22 22 23 23 23 24 25 25 26 27 27 27 27 27 26 25 24 22 20 17 14 13 14 15 16 17 19 20 20 20 21 21 21 21 21 20 18 17 15 14
34 33 33 32 32 31 31 30 30 30 29 29 29 29 28 28 28 27 26 26 25 25 24 24 23 23 23 22 22 22 23 23 22 22 22 22 22 22 22 22 22 22 22 22 22 23 23 24 24 25 25 25 25 24 24 25 25 25 25 24 24 24 23 22 20 19 17 15 13 14 15 16 17 19 22 22 20 19 20 20 21 22 22 21 20 19 18 16
36 35 35 34 34 33 33 33 32 32 32 31 31 31 30 30 29 29 28 27 27 27 26 26 26 25 25 25 25 24 25 26 24 23 24 24 24 24 24 24 24 24 24 24 24 25 25 26 26 26 26 25 24 23 23 22 22 22 22 22 22 22 21 20 18 17 15 15 14 15 17 18 19 22 25 24 21 20 19 20 21 22 22 22 22 21 20 19
37 37 37 36 36 35 35 34 34 34 34 33 33 33 32 32 31 31 30 29 29 29 28 28 28 27 27 27 27 26 27 28 26 25 26 26 26 26 25 25 26 26 26 26 26 27 27 28 28 27 26 25 24 23 22 22 22 22 22 21 21 21 20 19 19 18 16 16 16 16 19 20 21 24 26 25 23 22 21 22 22 22 22 22 22 22 21 20
39 39 38 38 37 37 37 36 36 35 35 35 35 34 34 33 33 32 32 31 31 30 30 30 30 30 29 29 29 28 29 30 28 27 27 27 27 27 27 27 27 27 28 28 28 29 29 29 29 28 27 26 25 25 25 24 24 23 23 22 22 21 20 20 20 20 19 19 18 19 22 23 24 26 27 26 24 23 23 24 23 23 22 21 22 22 21 21
41 40 40 39 39 39 38 38 37 37 37 37 36 36 35 35 35 34 34 33 33 32 32 32 32 32 32 31 30 29 31 31 29 28 28 28 29 28 29 29 29 29 30 30 30 31 31 30 30 29 28 27 27 27 27 27 26 25 24 23 23 22 21 22 22 23 23 22 22 22 24 25 26 27 27 27 25 24 25 25 24 24 22 22 21 20 20 21
43 42 42 41 41 41 40 40 39 39 39 38 38 38 37 37 37 36 36 35 35 35 35 35 35 34 34 33 31 30 32 32 30 29 29 29 30 30 30 30 31 31 32 32 32 32 31 31 30 30 29 28 29 29 29 28 27 26 25 24 24 23 23 24 25 26 26 26 25 24 24 25 26 27 28 28 27 26 26 25 25 24 23 22 21 20 20 20
44 44 44 43 43 43 42 42 41 41 41 40 40 40 39 39 39 38 38 38 38 37 37 37 36 36 35 34 31 31 32 32 30 31 31 31 31 32 32 33 33 34 34 34 34 33 32 31 30 30 30 30 30 30 30 29 28 27 25 24 24 24 25 26 27 27 28 28 27 26 24 24 27 28 28 28 28 27 26 25 24 24 23 23 22 22 22 21
46 45 45 45 45 45 44 44 43 43 43 42 42 42 42 41 41 41 41 40 40 39 39 38 37 37 36 34 32 32 33 32 32 32 33 33 34 34 35 35 35 36 35 35 34 34 33 32 32 31 31 31 31 31 30 29 28 27 26 25 25 26 26 27 27 27 28 28 28 28 26 24 27 29 28 28 28 27 26 25 24 23 23 23 24 24 24 23
46 46 47 47 47 46 46 46 46 45 45 45 44 44 44 44 43 43 43 42 42 41 40 39 39 38 38 35 34 34 35 35 35 35 36 36 36 37 37 37 37 37 36 35 35 34 34 33 33 33 33 33 32 31 30 29 28 27 27 26 26 26 26 26 27 26 28 30 30 30 28 25 26 28 28 28 28 26 25 24 23 23 23 24 24 25 24 24
47 47 47 47 47 47 47 47 47 47 46 46 46 46 45 45 45 44 44 43 43 42 42 41 40 40 40 38 37 37 37 38 38 38 39 38 38 38 38 38 38 37 37 36 36 35 35 35 35 34 33 32 31 30 30 29 28 27 28 28 27 26 24 25 27 28 29 31 30 31 29 25 25 27 28 28 27 26 25 24 23 23 24 24 24 24 24 24
49 49 49 48 48 48 48 48 48 47 47 47 47 47 46 46 46 45 45 45 44 44 43 43 42 42 42 40 39 38 39 39 40 40 40 39 39 39 39 39 38 38 38 37 37 37 36 36 35 34 33 31 30 29 29 29 28 29 30 29 28 26 25 25 27 29 30 31 31 30 29 26 25 26 27 27 26 26 25 24 24 24 25 25 25 24 24 24
50 50 51 50 50 49 49 49 48 48 48 48 48 47 47 47 47 46 46 46 45 45 45 44 43 43 43 41 39 38 39 40 40 40 40 40 40 40 40 40 39 39 39 38 38 37 36 36 34 33 32 30 28 29 31 30 29 31 32 30 29 28 27 26 27 29 31 32 31 30 29 27 26 26 26 26 26 26 26 25 25 25 25 25 25 25 25 24
50 50 51 51 51 51 51 51 50 50 50 49 49 49 48 48 48 48 47 47 46 46 45 45 44 45 45 42 40 39 40 40 40 40 41 41 41 41 41 41 41 40 40 39 37 36 36 34 33 32 30 29 29 31 33 32 32 32 32 31 30 28 27 25 26 29 31 32 31 30 29 27 27 27 26 25 26 26 26 25 25 25 25 25 25 25 25 25
51 51 51 51 51 51 51 51 51 51 51 51 51 50 50 50 50 49 49 48 48 47 47 47 47 48 47 44 43 42 41 42 42 42 42 42 42 42 42 41 41 40 39 37 36 35 34 34 33 31 29 30 33 34 34 34 34 33 32 32 30 29 27 25 27 30 31 32 31 31 30 28 27 28 26 25 25 25 25 25 25 25 25 25 25 25 25 26
52 52 52 52 51 51 50 51 51 51 51 51 51 51 50 50 50 50 49 49 48 48 48 49 48 48 48 46 45 44 44 43 44 43 42 42 41 41 40 39 38 38 37 36 36 35 35 35 33 30 30 33 35 35 35 35 34 33 33 32 32 30 27 27 30 32 32 33 31 30 30 27 26 27 26 24 24 24 25 25 26 26 26 26 26 26 26 26
54 53 53 53 52 52 51 51 51 51 51 51 51 50 50 49 49 49 49 48 48 48 48 48 48 47 46 45 44 44 43 43 42 41 40 39 39 39 38 37 37 36 36 37 38 37 37 37 32 30 33 34 34 35 35 35 34 34 34 34 33 32 31 31 33 33 33 33 30 28 27 26 26 26 24 24 24 24 25 26 27 27 27 27 26 26 26 26
55 55 55 55 53 53 53 52 52 52 51 51 51 50 50 50 50 50 50 49 48 48 48 47 47 46 44 44 43 42 42 41 40 39 38 38 38 38 38 38 38 37 38 39 39 38 39 37 32 32 35 34 34 35 35 35 35 34 35 35 35 33 34 34 34 34 33 32 30 29 27 27 27 27 25 26 26 26 27 28 28 28 28 27 26 26 26 27
59 57 57 56 55 54 54 54 54 53 52 51 50 50 50 50 50 50 51 51 49 47 47 47 47 46 45 45 43 42 42 41 40 40 39 39 39 39 39 39 39 39 39 39 39 40 40 37 34 35 35 34 35 36 36 36 36 36 36 36 35 34 36 37 35 34 34 33 32 31 30 29 29 29 28 28 28 29 29 29 29 28 28 27 27 27 28 28
62 61 60 59 58 56 55 55 55 54 53 52 51 51 51 51 51 51 52 53 51 48 47 47 47 46 46 45 45 45 45 43 42 41 40 40 40 40 40 39 39 40 39 39 39 40 40 38 37 37 36 36 37 37 36 36 36 37 37 36 35 34 35 36 36 35 35 35 34 34 34 32 30 30 30 29 30 30 31 31 30 29 29 29 29 29 30 31
63 64 63 62 61 59 58 58 56 54 54 53 52 52 53 52 52 52 53 54 54 50 47 47 47 47 46 47 47 46 46 45 43 42 41 40 39 39 39 39 40 39 38 39 40 41 40 39 38 38 38 38 39 38 37 36 37 37 36 36 35 35 36 36 36 37 37 37 35 36 36 34 32 31 30 30 31 31 32 32 31 31 30 30 31 31 32 32
64 66 66 66 64 62 62 60 57 56 55 54 55 54 54 54 54 54 54 56 57 53 49 49 49 49 48 47 46 45 46 45 42 42 41 40 39 39 40 40 40 39 39 40 42 43 41 39 39 39 39 39 39 39 37 38 40 39 36 35 36 36 37 37 38 38 39 38 37 37 37 36 35 33 32 33 33 33 33 33 33 32 32 32 32 32 32 32
63 65 67 68 67 66 64 62 60 59 57 56 57 57 56 56 56 56 56 59 60 55 52 51 50 50 49 48 47 46 47 45 42 42 42 41 40 40 41 41 40 40 41 42 43 43 41 39 39 40 40 40 39 39 39 41 42 40 37 36 37 37 38 38 39 39 40 40 39 38 37 38 38 36 35 35 35 34 34 34 34 33 33 33 33 32 32 33
60 62 64 66 68 68 67 65 63 61 60 60 60 60 60 59 59 58 57 61 61 56 55 55 52 50 49 49 48 48 48 46 44 44 43 42 42 42 42 42 42 43 44 45 46 44 43 43 41 41 41 41 41 40 41 42 42 41 39 38 38 38 38 39 40 40 41 41 41 38 37 39 41 39 37 36 35 34 33 33 33 33 33 33 32 33 33 34
59 61 61 62 65 67 68 68 65 63 62 62 62 62 62 62 62 61 61 63 62 58 58 59 55 51 49 49 49 50 49 48 47 46 44 44 44 44 44 44 45 46 47 48 48 48 48 47 45 45 44 43 43 43 43 43 44 43 41 41 39 39 39 40 41 41 42 43 41 38 38 41 43 42 41 38 36 34 33 32 33 33 33 33 33 34 35 36
56 59 60 61 63 65 67 69 68 65 64 63 63 63 62 63 63 61 63 65 63 62 62 61 58 55 51 49 49 49 50 49 49 48 47 46 46 46 46 47 48 49 50 50 50 50 50 49 49 48 46 45 45 44 44 45 44 43 42 41 40 39 40 41 42 42 43 43 40 38 39 41 43 44 43 41 39 36 34 33 33 33 33 34 35 36 38 38
50 55 60 61 62 62 65 68 69 67 64 64 63 63 64 64 63 64 66 65 65 66 64 62 61 59 55 52 49 49 50 50 50 49 49 48 48 48 48 49 50 51 52 52 50 49 49 50 49 49 48 47 45 44 44 43 42 41 40 40 40 40 41 42 43 43 43 43 41 40 40 41 43 44 43 42 40 38 37 36 35 35 36 37 39 40 41 41
48 51 55 59 60 59 58 61 67 69 66 64 64 66 67 67 68 69 68 67 67 67 63 62 63 61 58 55 51 49 49 49 50 50 50 50 50 50 51 52 52 53 53 52 50 49 48 48 47 47 46 45 43 42 41 40 40 40 40 40 41 42 42 43 42 41 41 41 41 42 42 43 43 42 42 42 41 40 40 40 39 40 41 42 43 44 44 43
49 50 52 54 56 57 54 52 60 67 68 68 69 70 71 73 74 71 69 70 69 66 62 62 63 62 60 57 53 51 49 48 49 49 50 51 52 52 53 54 54 54 54 52 50 49 47 46 45 44 42 41 40 38 37 37 38 40 40 41 41 41 42 42 41 40 40 41 41 43 44 45 45 43 42 42 42 42 42 42 43 43 44 45 46 46 46 46
50 51 53 52 51 54 54 52 55 60 64 69 72 73 76 76 68 62 64 65 64 62 60 59 60 60 59 57 53 51 50 49 48 49 50 51 52 54 55 55 55 54 53 51 50 48 46 44 42 40 39 38 37 35 36 37 38 39 39 40 41 40 40 41 41 41 42 42 43 44 46 46 46 45 44 43 44 44 44 44 44 45 46 47 47 48 48 49
51 52 53 52 50 50 51 53 54 56 59 64 69 74 75 68 57 55 58 57 56 56 53 52 53 53 53 52 51 48 47 46 46 46 48 49 51 52 52 53 52 50 49 47 45 44 42 41 39 38 37 36 36 36 37 37 38 39 39 40 40 38 39 41 42 43 44 45 46 46 47 46 46 46 46 46 46 45 45 45 46 46 47 48 48 48 48 48
54 55 55 54 52 50 48 50 52 55 58 61 67 72 67 56 50 50 50 49 49 48 46 47 48 48 49 49 48 47 45 44 44 45 46 47 48 48 48 47 46 45 43 41 40 40 40 39 38 37 37 36 37 37 38 38 38 39 39 39 38 38 39 42 43 44 45 47 47 47 47 46 47 47 48 48 47 47 47 47 48 48 48 49 48 48 47 47
55 56 55 55 54 52 49 49 50 54 56 59 65 65 56 49 48 46 44 44 44 42 43 45 46 47 48 48 47 47 47 46 46 46 46 46 46 46 44 43 42 42 40 38 39 40 40 40 39 39 38 38 38 39 39 39 39 40 39 37 37 39 41 43 44 45 47 48 49 49 49 49 49 49 49 48 48 49 49 50 50 49 48 48 47 46 46 47
53 54 53 53 53 53 52 51 51 54 57 61 64 59 52 50 50 47 48 47 45 44 44 45 45 46 47 48 48 48 48 49 48 47 46 46 46 44 41 40 40 40 39 39 40 41 41 41 41 40 40 39 40 40 41 41 40 39 38 39 40 42 43 44 45 46 48 49 51 52 52 52 52 52 50 50 51 52 52 52 51 49 48 46 45 46 47 47
52 54 54 52 53 54 55 55 56 59 63 66 65 59 54 54 53 51 52 50 49 49 47 46 47 47 47 48 48 49 50 50 48 47 46 45 44 42 41 40 39 38 38 38 39 40 41 42 43 43 41 41 42 43 42 41 39 39 41 42 43 44 44 45 45 47 49 51 53 54 55 55 55 54 53 53 54 54 53 53 51 49 47 46 46 47 48 48
54 56 55 54 56 56 56 57 59 62 66 68 65 61 57 56 56 54 54 53 53 52 50 50 50 50 50 49 49 49 50 49 48 47 47 45 44 43 41 40 38 37 37 38 40 42 43 44 45 46 45 45 45 43 42 41 42 43 44 45 45 45 45 46 47 49 50 52 53 54 57 58 58 58 57 57 56 55 54 53 52 50 49 48 50 51 52 51
55 54 51 51 54 55 57 60 61 62 64 64 64 61 58 58 57 55 55 55 55 54 52 53 53 54 53 52 50 49 49 49 48 47 47 46 45 44 42 41 41 41 42 44 45 45 46 46 47 49 49 49 47 44 44 45 46 46 46 46 46 46 46 48 51 51 51 51 51 53 58 61 62 63 63 62 61 59 58 57 54 53 51 51 53 54 53 53
55 54 52 49 49 50 54 58 61 63 64 62 61 59 58 58 58 57 57 57 57 57 55 55 56 56 56 56 54 52 50 50 49 48 47 47 46 46 45 45 46 47 47 48 47 45 45 46 48 49 49 49 48 47 47 47 47 47 47 47 47 48 49 50 52 51 51 52 53 56 60 62 63 66 65 64 63 61 59 58 56 55 53 54 57 56 55 55
54 55 56 54 52 50 51 55 58 61 62 62 60 60 59 58 58 58 59 58 58 58 57 58 58 57 58 59 58 55 52 51 51 51 50 49 49 49 49 50 50 50 50 48 45 44 45 47 47 47 47 47 47 48 48 48 49 48 48 48 49 50 50 50 51 51 53 56 57 59 62 63 64 65 64 63 61 58 57 56 56 57 57 58 59 58 57 57
51 52 53 55 56 52 51 54 56 57 58 59 59 60 60 60 60 61 60 59 59 59 59 60 60 59 59 60 60 58 55 53 52 52 52 52 53 52 53 53 52 52 51 48 46 45 46 46 46 46 47 48 48 50 50 50 50 49 50 51 51 51 51 51 51 52 55 59 59 59 62 63 62 63 63 62 61 59 58 58 60 60 60 60 60 60 60 60
49 50 50 52 54 53 50 51 53 54 55 56 58 60 61 61 61 61 59 58 59 59 59 59 59 59 58 58 58 59 58 57 56 55 56 56 55 54 55 53 52 52 52 50 47 47 46 46 46 48 50 51 52 52 52 51 51 53 54 54 53 53 53 52 52 54 58 61 60 60 62 61 60 61 63 64 63 62 62 62 60 59 61 64 64 63 62 63
50 51 51 50 51 52 52 51 51 53 54 55 57 58 59 60 59 58 58 57 58 57 56 56 57 57 57 57 58 58 59 58 56 55 55 55 55 54 53 51 50 51 52 51 49 48 49 50 50 51 53 54 55 56 56 56 57 57 57 56 55 54 54 53 54 57 59 59 59 60 61 59 59 61 63 63 63 63 63 60 57 58 65 69 67 65 65 66
55 54 53 52 51 52 51 50 51 52 52 54 57 58 57 57 56 55 55 56 55 54 54 55 55 56 58 58 59 59 59 57 54 52 52 52 52 50 50 50 50 51 52 52 51 52 53 54 54 55 56 56 57 58 59 60 59 58 57 56 55 54 54 54 56 57 56 55 58 59 59 60 61 60 60 60 59 60 59 59 61 67 72 71 67 67 68 69
59 58 56 54 54 53 51 51 51 51 50 51 56 58 56 56 55 54 55 56 57 56 57 59 58 57 57 57 58 58 57 54 53 51 51 52 51 51 50 50 51 52 53 54 54 54 55 56 56 57 58 58 59 60 60 60 59 57 56 55 54 54 54 55 56 55 54 56 59 59 59 60 60 58 59 59 59 61 64 67 72 74 73 69 68 69 69 70
58 60 58 56 57 57 55 54 53 53 52 51 54 56 56 56 56 56 57 58 59 59 60 60 59 58 57 56 55 55 53 52 51 51 54 54 54 53 52 52 53 54 55 56 56 57 58 59 59 59 59 59 60 60 59 58 56 56 55 54 54 54 55 56 56 55 55 59 61 61 62 62 61 61 65 66 68 71 74 75 75 73 70 69 69 69 70 70
55 58 59 56 57 60 61 59 56 55 56 55 55 56 56 56 56 55 55 56 56 56 56 55 54 53 53 52 51 51 52 52 52 54 56 56 55 54 52 52 53 53 53 53 53 55 59 61 62 62 61 61 61 60 58 56 55 56 55 54 56 58 58 59 59 59 61 64 65 66 68 66 65 67 70 72 73 74 73 72 70 69 69 69 69 70 70 70
55 58 60 59 58 60 63 63 60 58 58 58 56 56 55 53 53 53 53 54 55 54 53 52 51 51 51 50 49 50 53 54 55 56 55 55 54 54 52 51 50 49 49 49 50 53 57 60 61 61 62 63 61 59 57 56 57 58 57 56 59 60 59 60 63 64 66 67 67 69 70 67 66 67 68 69 69 69 68 68 68 69 70 70 71 71 71 70
56 58 61 61 61 60 61 63 63 62 61 60 59 58 57 55 53 53 53 54 55 55 54 53 53 53 53 52 51 52 54 56 57 57 56 56 55 54 52 51 50 50 50 51 52 54 57 59 60 60 61 62 60 59 57 56 59 62 60 58 59 60 61 63 65 65 64 64 65 66 65 62 62 63 64 64 65 66 67 68 70 71 71 72 72 71 71 70
Wind_Direction
222 223 224 224 225 225 226 226 227 228 229 232 234 236 238 240 242 242 243 244 246 248 250 254 257 261 265 268 272 276 280 283 284 284 281 277 273 269 265 263 261 261 263 264 264 265 265 266 268 271 273 276 278 281 284 286 287 288 290 291 293 295 297 299 302 304 306 307 308 308 304 299 296 298 301 305 306 310 318 321 323 326 322 319 315 312 311 308
226 227 228 229 230 231 231 231 232 233 234 235 237 238 240 241 242 244 245 247 248 250 252 254 258 261 264 267 271 274 278 280 282 281 278 275 272 270 267 266 265 265 266 267 268 268 269 270 272 274 276 278 280 282 285 286 287 288 289 290 292 294 296 298 300 302 303 304 304 302 296 290 290 293 298 303 303 309 319 319 318 320 318 316 312 310 309 307
229 230 231 232 233 234 234 235 236 237 237 238 239 240 241 242 243 245 246 247 249 250 252 255 257 260 263 266 270 273 276 278 279 278 276 274 271 269 268 267 267 267 268 269 271 272 273 274 276 277 278 279 281 283 284 285 287 287 289 290 291 293 294 296 298 300 300 300 300 295 286 282 283 288 295 300 302 311 319 314 313 315 315 315 311 309 307 304
231 232 234 234 235 236 236 237 238 239 239 240 240 241 241 243 244 245 246 247 249 250 252 255 258 260 263 266 270 273 276 277 277 277 275 272 270 269 268 267 267 268 269 270 271 273 275 276 277 279 280 281 282 283 284 285 287 288 289 290 291 292 293 295 296 296 296 296 295 289 280 279 282 285 291 295 301 311 311 307 310 313 313 314 310 308 305 302
232 233 235 236 236 237 237 238 239 239 240 241 241 242 242 243 244 245 246 247 249 251 253 256 258 261 263 267 270 273 276 276 276 276 274 271 270 268 267 267 267 268 269 270 272 274 275 277 279 280 281 283 284 284 285 286 287 288 289 290 291 291 291 292 292 292 292 291 290 285 279 281 285 288 290 293 301 305 303 305 310 310 310 311 310 307 303 301
234 234 235 236 237 237 238 238 239 240 240 241 242 242 243 244 245 246 247 248 250 252 254 257 259 261 264 268 271 274 276 275 276 276 273 271 269 268 267 267 267 268 269 270 273 275 277 279 281 283 283 284 284 284 285 286 287 288 289 290 291 290 290 289 288 287 287 286 285 283 281 283 289 290 290 294 299 298 299 305 306 305 306 307 307 305 304 303
235 236 236 237 237 238 238 239 239 240 240 241 242 243 244 245 246 247 248 249 251 253 255 257 260 262 265 269 271 274 275 275 276 274 272 270 269 268 267 267 268 269 270 272 275 277 280 282 284 284 284 284 284 284 284 285 287 289 290 291 291 290 290 288 285 283 282 282 282 282 283 286 290 290 292 295 297 297 300 301 300 302 303 303 303 303 303 304
236 236 237 237 238 238 239 239 240 240 241 242 243 244 245 246 247 248 249 251 253 255 256 259 261 263 266 269 271 273 273 275 275 271 270 269 267 267 267 268 269 270 272 274 277 280 283 285 286 285 284 284 284 283 283 284 286 288 290 291 290 288 288 287 285 283 282 282 283 285 286 289 291 291 292 295 297 300 301 298 298 299 299 300 301 301 302 302
236 237 238 238 238 239 240 240 241 242 242 243 244 245 246 247 248 249 251 253 254 256 258 260 262 264 266 268 270 271 271 273 272 269 267 266 266 266 267 268 269 271 274 276 279 282 284 286 286 285 284 283 283 284 284 284 285 286 287 288 287 286 286 286 285 285 284 283 285 287 288 291 291 290 291 293 297 299 297 296 296 295 295 295 296 298 299 298
238 238 238 239 239 240 240 241 242 242 243 244 245 246 247 248 250 251 252 254 256 257 260 262 264 266 267 269 270 269 269 270 269 267 265 264 264 265 266 268 270 273 275 278 280 282 284 285 284 283 282 282 283 284 284 285 285 284 284 283 283 283 283 283 284 284 285 285 286 287 288 289 289 289 290 292 294 295 293 293 292 292 292 291 291 291 291 291
240 240 240 240 240 241 241 242 242 243 244 245 246 248 249 250 251 252 254 256 257 259 261 263 265 266 267 269 269 267 268 268 267 265 264 263 264 265 267 269 272 274 277 279 281 282 283 282 282 281 281 282 283 284 285 285 284 283 282 280 279 279 279 280 281 282 284 285 286 285 285 287 287 287 288 290 291 291 290 290 290 290 290 289 288 285 283 283
242 242 242 242 242 242 243 243 244 245 245 246 247 249 250 251 253 254 256 257 259 261 262 264 265 266 267 268 267 265 266 266 265 264 264 264 265 267 269 272 274 276 278 279 281 281 281 280 280 280 280 282 282 283 284 284 283 282 280 278 277 277 276 276 278 281 284 285 284 283 282 284 285 285 287 288 289 289 288 288 289 289 288 288 287 285 283 282
244 244 244 245 245 245 245 246 247 247 248 249 249 251 252 253 255 256 258 259 261 262 263 264 265 265 266 265 264 264 265 264 264 265 265 266 268 270 271 273 275 276 278 279 280 280 279 279 279 279 280 281 281 282 282 282 281 280 278 276 275 274 274 276 278 281 282 282 282 282 281 282 283 284 285 286 286 286 287 287 286 285 285 285 285 285 284 284
245 245 246 246 247 247 247 248 249 249 250 251 252 253 254 255 256 258 259 260 261 262 263 263 264 264 264 264 263 264 264 265 265 266 267 268 270 271 272 273 275 276 277 278 278 278 278 278 278 279 279 280 280 281 281 281 279 278 277 274 271 271 273 277 280 281 281 280 280 281 281 281 282 283 283 282 283 284 284 283 282 281 281 281 282 283 284 284
246 247 248 248 248 249 249 250 250 251 252 253 254 255 256 257 258 259 260 261 261 262 262 263 263 264 264 264 264 264 265 266 266 267 268 270 270 271 272 273 274 275 276 277 277 278 278 278 278 278 279 279 280 280 280 279 278 277 274 271 271 273 275 277 279 279 278 278 279 280 281 281 280 281 281 281 282 282 281 280 280 280 280 280 280 281 283 283
247 248 249 249 250 250 251 251 252 252 253 254 255 256 257 258 258 259 260 261 261 262 263 263 263 264 265 264 265 265 265 266 267 268 269 270 270 271 272 273 274 275 275 276 277 277 278 278 278 278 278 278 279 280 278 277 276 275 273 274 276 278 278 277 278 277 277 277 277 278 280 280 278 277 278 280 281 281 280 280 279 279 279 279 280 280 281 282
247 248 249 250 251 252 252 253 253 254 254 255 256 257 257 258 259 260 260 261 261 262 263 263 264 264 265 264 264 263 264 266 267 268 269 269 270 271 272 273 274 274 275 276 276 277 277 277 278 278 278 279 280 279 276 275 274 274 276 279 280 280 279 278 278 276 276 276 276 277 278 279 278 275 275 276 277 277 277 277 277 277 277 277 278 279 280 281
247 248 249 250 250 251 252 253 254 254 255 256 256 257 258 258 259 260 260 261 262 262 263 263 264 264 264 264 263 263 264 266 267 267 268 269 270 271 272 273 273 274 275 275 275 275 275 276 276 277 280 282 280 276 275 276 277 277 280 281 281 280 279 279 278 275 274 274 275 277 278 279 278 277 275 274 273 273 273 274 274 274 274 274 275 277 279 281
247 248 249 250 250 251 252 253 254 254 255 256 257 257 258 258 259 260 260 261 262 262 262 263 263 263 264 264 264 264 264 265 266 267 267 268 269 270 270 271 272 272 273 273 273 273 273 274 274 278 282 280 276 276 278 279 280 280 281 280 280 279 278 280 277 274 273 273 274 276 277 278 277 276 274 272 271 272 272 271 271 270 271 272 274 276 279 281
247 248 248 249 250 251 252 252 253 254 255 255 256 257 258 259 259 260 260 261 261 261 262 262 263 264 265 265 265 265 264 264 265 265 266 267 267 268 268 269 270 270 270 271 271 271 272 272 275 279 278 275 275 277 279 280 281 281 280 279 279 278 280 280 276 274 274 274 274 275 276 277 275 272 271 271 269 269 268 268 268 269 270 272 275 277 279 282
246 247 247 248 248 249 251 252 252 253 253 255 256 257 258 259 259 259 260 260 260 261 262 263 263 264 265 265 264 263 263 262 263 263 263 264 264 265 266 267 267 268 269 270 270 271 272 273 276 276 273 274 276 278 279 279 280 281 280 279 278 278 280 278 276 275 274 274 274 274 273 273 271 270 271 271 269 267 266 267 268 269 271 273 275 278 281 284
246 246 247 247 247 248 249 250 251 252 252 253 255 256 257 258 258 259 259 259 259 260 261 262 263 263 263 263 263 262 261 261 260 260 261 261 262 264 264 265 266 268 268 269 271 272 272 274 275 273 272 275 276 277 278 279 279 280 280 279 278 278 278 276 275 275 274 275 276 275 272 270 271 273 273 273 272 271 270 270 270 271 272 274 276 279 282 284
246 246 247 247 247 248 248 249 250 250 251 253 253 255 256 256 257 258 258 258 257 258 260 261 261 262 262 261 261 261 260 259 259 259 260 261 262 263 263 264 266 266 267 269 270 271 272 273 273 271 273 274 274 275 277 278 279 279 278 278 279 279 276 275 275 275 275 276 276 276 274 272 273 275 276 277 277 277 276 275 274 274 275 276 279 281 282 282
245 245 246 247 247 247 248 249 249 250 251 252 253 254 254 255 256 256 257 258 257 256 257 259 261 261 261 261 260 260 260 259 260 260 260 261 261 262 263 264 264 265 267 269 269 270 271 272 272 272 273 273 274 275 276 277 278 277 277 278 279 278 276 275 275 275 276 276 276 276 275 274 275 277 279 279 279 278 277 277 277 276 277 279 281 282 282 280
245 245 245 245 246 246 247 248 249 251 251 252 253 253 254 255 255 256 257 257 257 256 255 257 260 261 260 260 260 260 261 260 260 260 260 260 261 262 264 264 265 267 267 268 268 268 269 271 272 273 273 273 274 275 276 277 276 275 276 277 277 277 276 275 275 276 276 276 275 275 276 276 276 277 279 279 279 278 278 278 277 277 278 280 281 281 280 280
245 244 243 244 245 245 246 248 249 250 251 252 253 253 254 254 254 256 256 257 258 257 256 256 257 259 259 260 260 260 260 260 259 260 260 261 262 264 265 265 266 268 268 268 268 268 269 271 272 272 272 273 274 275 276 276 275 275 277 278 277 276 275 274 274 275 275 274 274 274 276 278 277 278 278 277 277 277 277 277 276 277 279 279 280 280 281 282
248 246 243 242 243 244 245 246 247 248 250 251 252 252 253 253 254 255 256 257 259 259 258 256 255 257 259 259 259 259 260 261 260 260 261 262 263 263 264 265 267 268 268 268 268 269 270 270 270 272 273 274 275 275 275 274 274 276 278 277 276 275 274 274 274 273 273 273 273 275 278 277 275 276 277 275 275 275 274 274 274 276 277 278 279 281 284 285
249 250 247 244 242 243 244 244 245 246 247 248 250 251 252 252 253 254 254 256 260 261 260 258 256 256 258 258 258 258 260 262 261 260 261 262 263 264 265 267 268 268 268 268 269 269 270 269 270 272 273 274 275 275 273 274 275 276 277 276 275 274 273 272 272 271 271 272 273 277 280 277 273 274 275 273 273 273 272 272 272 274 275 277 280 284 286 286
248 248 249 248 246 245 245 244 244 245 246 247 248 250 251 252 252 254 254 255 260 261 261 260 259 257 257 257 258 258 258 260 260 261 261 262 263 264 266 268 269 269 269 269 269 269 269 269 270 271 273 274 274 273 273 274 275 276 276 275 274 272 271 270 270 270 271 271 273 279 280 277 275 275 275 275 274 272 272 272 273 274 276 279 282 285 286 287
248 247 248 249 249 249 248 246 245 245 245 247 248 250 250 251 253 253 253 256 261 262 261 262 262 261 258 257 258 259 258 258 259 260 261 262 263 264 266 267 268 269 270 270 270 270 270 270 270 271 272 273 273 273 273 273 274 274 273 272 271 269 268 269 269 271 272 272 275 279 278 276 276 277 278 279 279 278 278 276 276 277 278 280 284 287 289 290
250 248 247 247 248 250 250 248 245 244 244 245 247 249 249 250 251 250 252 258 261 261 263 264 264 263 262 260 259 259 260 259 259 260 261 262 263 264 265 267 268 269 270 270 271 271 270 270 270 270 270 270 271 272 272 272 273 272 270 268 267 267 267 268 269 271 273 275 277 277 276 275 276 277 279 280 281 282 283 282 281 281 282 284 287 290 292 292
254 252 249 249 249 249 251 249 245 243 243 243 244 245 246 247 246 248 253 258 258 260 264 263 263 264 264 263 261 261 261 261 261 260 261 262 263 263 265 265 267 269 270 272 272 271 270 270 270 268 268 268 269 270 270 270 270 268 267 266 265 266 267 268 270 272 274 275 275 275 275 275 275 277 278 280 282 284 284 285 286 287 289 290 292 294 295 295
253 254 253 251 250 250 249 248 246 244 244 243 243 243 244 244 246 252 256 256 256 260 263 262 263 264 263 263 263 262 263 261 260 259 259 260 261 262 263 265 267 269 271 272 271 269 269 269 268 267 266 266 266 266 266 265 266 265 266 266 266 267 269 270 271 272 272 271 272 273 274 275 276 278 279 281 282 283 284 286 288 290 292 293 295 296 296 296
244 246 249 250 250 250 247 245 245 246 247 246 245 244 244 246 251 256 256 254 256 259 260 260 261 262 262 263 262 262 262 260 259 258 258 260 261 262 263 265 267 268 269 269 268 268 268 268 267 265 263 262 262 261 260 261 263 264 265 266 267 268 270 272 272 271 271 271 271 271 273 275 278 280 280 280 280 281 284 286 287 289 291 293 294 295 295 294
242 241 245 248 249 249 248 245 243 245 247 248 248 247 247 251 254 255 254 255 256 257 257 258 259 260 261 261 261 261 260 259 259 259 259 260 260 262 263 264 266 266 266 267 266 266 265 264 263 262 261 260 259 258 259 260 261 262 264 266 268 269 271 272 272 272 272 273 273 273 275 277 279 279 280 280 280 282 283 285 286 288 290 292 293 292 291 291
242 240 243 248 249 248 249 247 244 244 246 248 249 248 250 254 255 255 255 255 254 254 255 255 255 257 259 259 261 261 261 260 260 260 260 259 260 261 262 263 264 264 265 264 263 262 261 260 259 259 259 259 259 259 259 260 261 262 263 266 268 269 270 270 271 272 273 273 275 276 277 278 278 279 280 281 282 283 284 285 286 287 289 291 290 290 289 290
242 240 241 246 249 248 247 248 246 245 246 247 249 250 251 252 253 253 252 250 249 250 250 250 251 253 256 258 260 261 262 262 261 260 259 259 261 261 261 262 261 262 263 262 260 260 259 259 258 258 257 258 259 260 260 260 260 262 264 266 269 269 269 271 272 273 273 274 276 277 279 280 280 281 282 283 283 284 284 284 285 287 289 289 288 289 290 291
247 243 239 239 243 245 246 247 246 246 248 248 248 249 249 249 249 248 248 248 248 247 247 248 250 252 254 256 258 260 261 262 261 260 260 261 263 262 261 260 259 259 260 259 259 260 260 260 259 257 256 257 258 259 260 260 261 263 265 267 268 268 269 270 271 272 274 275 278 281 283 284 285 285 285 285 284 284 284 284 286 287 288 288 289 291 292 292
246 244 241 238 238 241 243 244 243 243 244 244 245 246 245 246 246 246 247 247 246 247 247 248 249 251 252 253 256 258 259 260 260 260 260 261 262 261 259 257 254 255 256 258 260 260 260 259 259 259 259 259 260 260 260 261 262 263 263 265 266 267 268 269 269 272 274 277 281 286 288 288 288 287 285 284 283 282 283 284 286 287 288 289 291 293 292 290
242 244 243 238 236 236 238 239 238 238 237 239 243 245 245 246 247 247 248 248 248 247 247 247 248 250 252 253 254 256 257 258 257 257 258 259 260 260 259 256 253 254 256 258 259 259 260 260 260 262 262 262 262 261 260 260 260 260 261 264 265 266 267 268 271 273 275 278 283 287 289 289 289 287 286 286 286 285 285 286 287 289 288 289 292 293 291 288
238 239 239 236 233 233 233 236 237 236 237 238 241 243 244 245 247 247 248 249 249 248 247 247 249 251 252 253 254 254 255 256 255 255 256 257 258 259 258 256 256 257 258 259 260 260 261 261 262 263 263 263 262 261 259 259 260 261 262 264 266 268 270 271 275 278 278 280 282 285 287 289 289 289 289 290 289 288 288 288 289 288 286 287 292 291 288 286
235 233 233 232 231 231 233 237 237 237 238 240 242 244 245 245 246 247 248 248 248 248 248 249 251 252 253 253 253 253 253 254 254 254 254 255 257 258 257 256 257 259 259 260 261 259 259 262 264 263 262 262 261 260 260 260 261 262 264 268 270 273 274 274 277 281 279 279 280 281 284 287 287 287 288 288 287 287 289 289 289 285 283 288 293 291 288 286
238 235 233 233 234 233 236 240 240 239 240 242 243 245 246 247 247 247 248 248 247 247 247 248 250 251 253 254 253 251 251 253 253 252 253 254 255 256 256 256 258 260 259 259 258 259 263 267 267 265 263 262 261 262 263 263 264 266 270 273 274 275 275 273 274 275 274 277 279 278 281 285 285 285 286 286 286 288 289 289 286 282 282 289 293 290 287 286
243 241 238 236 235 234 237 241 242 243 243 244 245 246 247 247 247 248 250 248 245 244 246 247 248 250 252 254 254 252 250 251 253 253 254 255 256 256 257 258 259 260 259 258 259 263 266 266 264 261 261 261 262 263 266 267 269 270 272 273 272 272 272 270 271 271 272 277 277 274 279 285 285 286 287 286 288 289 288 287 284 280 282 288 291 288 286 286
244 242 240 239 238 236 238 241 243 244 245 246 246 247 247 246 246 247 247 244 241 242 244 245 247 248 249 250 252 253 253 253 254 254 254 255 256 256 257 257 255 255 257 260 263 265 263 260 258 257 258 261 263 265 267 268 268 269 271 272 271 271 270 269 269 269 273 277 275 275 281 285 284 287 287 287 289 289 286 285 281 276 281 289 289 287 287 287
239 239 239 240 240 239 239 241 243 243 243 243 243 243 243 243 244 244 242 240 239 240 242 243 244 245 245 246 248 251 253 254 255 255 255 254 254 253 252 250 249 251 257 261 261 258 254 252 252 253 256 260 263 265 265 265 266 268 270 271 271 272 271 270 270 273 276 277 276 280 284 284 285 287 286 285 286 285 283 282 277 275 282 288 288 287 287 288
233 236 238 239 241 241 239 240 243 243 242 240 238 237 239 240 240 240 240 240 241 241 243 243 243 243 244 245 247 248 249 252 253 255 255 252 248 245 243 243 245 249 254 254 251 249 248 249 252 254 258 261 265 266 267 268 269 270 271 272 273 274 273 272 274 278 278 274 276 283 284 283 285 285 279 278 279 277 276 275 275 279 285 287 287 286 287 288
231 234 237 238 238 240 240 240 242 243 244 241 237 236 236 236 237 238 239 242 243 244 244 244 244 245 246 246 247 247 248 249 252 252 248 243 239 236 237 239 242 246 248 248 248 251 253 256 258 261 262 264 266 267 268 269 270 272 273 274 276 277 275 275 276 277 275 273 278 283 280 278 281 277 271 271 272 272 273 275 278 283 285 285 284 285 286 287
231 232 237 237 235 236 238 239 241 244 245 244 241 239 238 237 238 240 241 244 245 245 245 246 247 247 246 246 246 246 246 247 248 246 241 238 237 237 240 242 244 246 248 252 255 258 260 262 263 264 266 267 267 268 269 269 269 270 271 274 277 275 272 272 272 273 273 275 278 278 273 274 277 274 271 273 274 275 276 278 281 283 282 282 283 284 285 287
230 230 235 237 234 232 233 235 237 240 242 241 240 241 241 241 242 243 243 243 243 243 243 244 245 245 244 244 244 245 245 245 244 241 238 238 240 242 246 250 252 253 255 258 261 262 263 265 266 268 270 270 271 271 269 269 269 269 272 276 276 272 270 272 274 274 274 275 275 274 274 276 278 276 275 277 277 277 279 280 280 280 280 282 284 285 286 286
230 228 232 235 234 231 230 231 232 234 237 239 239 239 239 240 241 242 243 242 242 242 242 242 243 243 243 243 244 244 242 240 238 238 239 242 245 248 251 254 254 255 255 256 257 259 262 264 267 269 269 270 272 269 267 268 267 268 275 279 277 275 276 277 276 275 275 276 276 277 278 280 279 277 276 277 277 279 280 280 280 281 282 284 285 286 286 286
231 228 229 232 234 233 231 230 230 231 234 237 240 241 241 241 241 242 243 243 242 243 243 243 243 243 243 243 244 244 242 241 240 242 245 248 250 251 253 253 253 252 252 251 252 255 259 262 264 264 263 266 268 266 265 264 264 270 281 283 280 279 279 277 275 276 276 277 277 278 278 279 277 275 275 275 276 278 278 279 281 283 285 286 286 286 286 286
Height
5853 5854 5855 5857 5858 5859 5860 5861 5861 5862 5863 5864 5865 5866 5867 5867 5868 5869 5870 5870 5871 5872 5872 5873 5873 5874 5874 5875 5875 5876 5876 5876 5877 5877 5877 5878 5878 5878 5878 5879 5879 5879 5879 5880 5880 5881 5881 5881 5882 5882 5882 5882 5882 5881 5881 5881 5880 5880 5880 5880 5880 5880 5879 5879 5879 5878 5878 5877 5877 5877 5877 5876 5876 5875 5874 5873 5871 5872 5874 5875 5875 5876 5875 5875 5875 5875 5874 5874
5851 5852 5853 5854 5856 5857 5858 5859 5860 5860 5861 5862 5863 5864 5865 5866 5866 5867 5868 5869 5869 5870 5871 5871 5872 5872 5873 5873 5874 5874 5875 5875 5875 5875 5876 5876 5876 5876 5877 5877 5877 5878 5878 5878 5879 5879 5879 5880 5880 5880 5880 5880 5880 5880 5879 5879 5879 5878 5878 5878 5878 5878 5877 5877 5877 5876 5876 5876 5876 5875 5875 5875 5874 5874 5873 5872 5870 5871 5873 5872 5873 5874 5874 5874 5873 5873 5873 5873
5848 5850 5851 5852 5853 5854 5856 5857 5858 5858 5859 5860 5861 5862 5863 5864 5864 5865 5866 5867 5867 5868 5869 5869 5870 5871 5871 5872 5872 5873 5873 5873 5873 5874 5874 5874 5874 5875 5875 5875 5876 5876 5876 5876 5877 5877 5877 5878 5878 5878 5878 5878 5878 5878 5877 5877 5876 5876 5876 5876 5876 5876 5875 5875 5875 5874 5874 5874 5874 5874 5874 5873 5873 5873 5872 5871 5869 5870 5871 5870 5870 5871 5872 5873 5872 5872 5872 5871
5845 5847 5848 5849 5851 5852 5853 5854 5855 5856 5857 5858 5859 5860 5861 5861 5862 5863 5864 5865 5865 5866 5867 5867 5868 5869 5869 5870 5870 5871 5871 5871 5871 5872 5872 5872 5872 5873 5873 5873 5874 5874 5874 5875 5875 5875 5875 5876 5876 5876 5876 5876 5876 5876 5875 5874 5874 5874 5874 5873 5873 5873 5873 5873 5872 5872 5872 5872 5872 5872 5872 5871 5872 5871 5871 5870 5869 5869 5869 5868 5868 5868 5868 5870 5870 5870 5870 5870
5843 5844 5845 5847 5848 5849 5851 5852 5853 5854 5855 5856 5857 5857 5858 5859 5860 5861 5862 5862 5863 5864 5864 5865 5866 5866 5867 5867 5868 5868 5869 5869 5869 5870 5870 5870 5870 5871 5871 5871 5872 5872 5872 5873 5873 5873 5873 5873 5874 5874 5874 5874 5874 5873 5873 5872 5872 5871 5871 5871 5870 5870 5870 5871 5870 5870 5870 5870 5870 5870 5870 5869 5869 5869 5869 5869 5869 5868 5867 5866 5866 5866 5865 5866 5867 5867 5868 5868
5839 5841 5842 5844 5845 5846 5848 5849 5850 5851 5852 5853 5854 5855 5856 5856 5857 5858 5859 5860 5861 5861 5862 5862 5863 5864 5864 5865 5865 5866 5866 5866 5867 5868 5867 5868 5868 5868 5869 5869 5870 5870 5870 5870 5870 5871 5871 5871 5871 5871 5871 5871 5871 5871 5870 5870 5869 5869 5868 5869 5868 5867 5867 5868 5868 5868 5868 5868 5868 5868 5868 5867 5867 5866 5866 5866 5867 5867 5866 5865 5864 5864 5863 5863 5863 5864 5864 5865
5836 5838 5839 5840 5842 5843 5845 5846 5847 5848 5849 5850 5851 5852 5853 5854 5855 5856 5857 5857 5858 5858 5859 5860 5860 5861 5862 5862 5863 5863 5863 5863 5865 5865 5865 5865 5866 5866 5866 5867 5867 5868 5868 5868 5868 5868 5868 5868 5868 5869 5868 5868 5868 5868 5868 5868 5867 5866 5866 5866 5866 5865 5865 5865 5866 5866 5866 5866 5867 5867 5866 5865 5865 5864 5862 5863 5864 5864 5864 5863 5862 5862 5861 5861 5861 5860 5861 5861
5833 5834 5836 5837 5839 5840 5841 5843 5844 5845 5846 5847 5848 5849 5850 5851 5852 5853 5854 5854 5855 5856 5856 5857 5858 5858 5859 5860 5860 5861 5860 5860 5862 5863 5862 5863 5863 5863 5864 5864 5865 5865 5865 5865 5865 5865 5866 5866 5866 5866 5866 5866 5866 5866 5866 5866 5865 5865 5864 5864 5863 5863 5862 5862 5863 5863 5864 5864 5864 5865 5863 5863 5863 5861 5859 5860 5861 5861 5861 5860 5860 5860 5859 5859 5858 5858 5858 5858
5829 5831 5832 5834 5835 5836 5838 5839 5840 5841 5842 5843 5844 5846 5847 5848 5849 5850 5851 5851 5852 5853 5853 5854 5855 5855 5856 5857 5857 5858 5857 5857 5859 5860 5860 5860 5860 5861 5861 5862 5862 5862 5862 5863 5863 5863 5863 5863 5862 5863 5863 5863 5863 5863 5863 5863 5863 5863 5862 5862 5861 5861 5860 5860 5860 5860 5861 5862 5862 5862 5861 5860 5860 5858 5857 5857 5858 5858 5858 5857 5857 5857 5857 5857 5856 5856 5855 5855
5825 5827 5829 5830 5831 5833 5834 5835 5837 5838 5839 5840 5841 5842 5843 5844 5845 5846 5847 5848 5849 5850 5850 5851 5851 5852 5853 5854 5855 5855 5854 5854 5856 5857 5857 5857 5858 5858 5859 5859 5859 5859 5859 5860 5860 5860 5860 5859 5859 5859 5860 5860 5860 5859 5860 5860 5860 5860 5860 5859 5859 5858 5858 5857 5857 5857 5858 5858 5859 5859 5859 5858 5857 5855 5855 5854 5855 5855 5855 5855 5855 5855 5855 5855 5854 5854 5853 5853
5821 5823 5824 5826 5827 5829 5830 5831 5833 5834 5835 5836 5837 5838 5840 5841 5842 5843 5844 5845 5845 5846 5847 5847 5848 5849 5850 5850 5852 5851 5851 5852 5853 5853 5854 5854 5855 5855 5856 5856 5856 5856 5856 5856 5856 5856 5856 5856 5856 5856 5856 5857 5856 5856 5856 5856 5857 5857 5857 5857 5856 5856 5856 5855 5854 5854 5854 5855 5856 5856 5856 5855 5854 5853 5852 5852 5852 5853 5852 5852 5852 5852 5852 5852 5852 5851 5851 5851
5817 5819 5820 5822 5823 5825 5826 5827 5829 5830 5831 5832 5833 5835 5836 5837 5838 5839 5840 5841 5842 5842 5843 5844 5844 5845 5846 5847 5848 5848 5848 5849 5849 5850 5850 5851 5851 5852 5852 5852 5853 5853 5853 5853 5853 5853 5853 5853 5853 5853 5853 5853 5853 5853 5853 5853 5853 5853 5854 5854 5853 5853 5853 5852 5852 5852 5851 5851 5852 5853 5854 5853 5851 5850 5850 5849 5849 5849 5849 5849 5849 5849 5849 5848 5848 5848 5848 5848
5812 5814 5816 5817 5819 5820 5822 5823 5824 5826 5827 5828 5829 5830 5832 5833 5834 5835 5836 5837 5838 5838 5839 5840 5841 5842 5843 5844 5844 5844 5845 5845 5846 5846 5847 5847 5848 5848 5848 5849 5849 5849 5849 5849 5849 5849 5849 5849 5849 5850 5850 5850 5850 5849 5849 5850 5850 5850 5850 5850 5850 5850 5850 5849 5849 5849 5849 5848 5848 5848 5850 5851 5848 5847 5847 5846 5846 5846 5846 5847 5847 5846 5846 5845 5845 5845 5845 5845
5808 5810 5811 5813 5815 5816 5817 5819 5820 5821 5823 5824 5825 5826 5827 5828 5829 5831 5832 5832 5833 5834 5835 5836 5837 5838 5839 5841 5841 5841 5841 5842 5842 5843 5843 5844 5844 5844 5844 5845 5845 5845 5845 5845 5845 5845 5845 5846 5846 5846 5846 5846 5846 5846 5846 5846 5846 5846 5846 5847 5847 5847 5847 5847 5846 5846 5845 5844 5844 5844 5846 5848 5846 5844 5844 5843 5843 5843 5843 5844 5844 5843 5843 5843 5842 5842 5841 5841
5803 5805 5806 5808 5810 5811 5813 5814 5815 5817 5818 5819 5820 5822 5823 5824 5825 5826 5827 5828 5829 5830 5831 5832 5833 5834 5835 5837 5837 5837 5838 5838 5838 5839 5839 5840 5840 5840 5840 5840 5841 5841 5841 5841 5841 5841 5842 5842 5842 5842 5843 5843 5843 5843 5842 5842 5843 5842 5842 5842 5843 5844 5845 5845 5843 5843 5841 5840 5840 5840 5841 5844 5843 5841 5840 5840 5840 5840 5840 5840 5840 5840 5840 5839 5839 5839 5838 5838
5798 5800 5801 5803 5805 5806 5808 5809 5811 5812 5813 5815 5816 5817 5818 5819 5820 5821 5822 5823 5824 5825 5826 5827 5829 5829 5831 5833 5834 5834 5834 5834 5834 5835 5835 5836 5836 5836 5836 5836 5836 5836 5837 5837 5837 5837 5838 5838 5838 5838 5839 5839 5839 5839 5838 5838 5839 5838 5837 5838 5840 5841 5842 5842 5840 5839 5837 5836 5837 5837 5837 5839 5840 5838 5837 5837 5837 5837 5837 5837 5837 5837 5836 5836 5836 5835 5835 5835
5792 5794 5796 5798 5800 5802 5803 5804 5806 5807 5808 5810 5811 5812 5813 5814 5816 5817 5818 5819 5820 5821 5822 5823 5824 5825 5826 5828 5829 5829 5829 5830 5830 5831 5831 5831 5831 5831 5831 5832 5832 5832 5832 5833 5833 5833 5833 5833 5834 5834 5835 5835 5836 5835 5833 5834 5835 5834 5833 5835 5836 5837 5837 5838 5837 5835 5833 5832 5832 5833 5834 5835 5835 5835 5834 5834 5834 5834 5833 5834 5833 5833 5833 5833 5832 5832 5832 5832
5787 5789 5790 5793 5795 5797 5798 5800 5801 5802 5804 5805 5806 5807 5808 5809 5810 5812 5813 5814 5815 5816 5817 5818 5819 5819 5821 5823 5824 5825 5825 5826 5826 5826 5826 5827 5827 5827 5827 5827 5828 5828 5828 5828 5829 5829 5829 5829 5830 5830 5832 5832 5831 5830 5829 5830 5830 5830 5830 5831 5831 5832 5833 5834 5833 5830 5829 5828 5828 5829 5830 5831 5831 5830 5831 5831 5831 5831 5830 5830 5830 5830 5830 5829 5829 5829 5829 5829
5781 5783 5785 5787 5789 5791 5793 5794 5796 5797 5799 5800 5801 5802 5803 5804 5805 5806 5808 5809 5810 5811 5812 5813 5814 5814 5816 5818 5819 5820 5821 5821 5822 5822 5822 5822 5822 5823 5823 5823 5823 5824 5824 5824 5825 5825 5825 5825 5826 5828 5829 5828 5826 5825 5825 5826 5826 5827 5827 5826 5827 5828 5829 5830 5828 5826 5825 5825 5825 5826 5825 5827 5827 5826 5827 5828 5828 5827 5827 5827 5827 5826 5826 5826 5826 5826 5826 5826
5776 5778 5779 5781 5783 5785 5787 5789 5790 5792 5793 5794 5796 5797 5798 5799 5800 5801 5802 5803 5805 5806 5806 5807 5808 5809 5811 5813 5814 5815 5816 5816 5817 5817 5817 5818 5818 5818 5818 5819 5819 5819 5820 5820 5820 5820 5821 5821 5823 5825 5824 5822 5822 5822 5822 5822 5822 5823 5823 5823 5823 5823 5825 5825 5823 5822 5822 5821 5822 5823 5822 5823 5823 5822 5823 5824 5824 5824 5824 5823 5823 5823 5823 5823 5823 5823 5823 5822
5771 5772 5774 5775 5778 5780 5782 5783 5784 5786 5788 5789 5791 5792 5793 5794 5794 5795 5797 5798 5799 5800 5801 5802 5803 5805 5806 5807 5809 5809 5810 5811 5812 5812 5813 5814 5813 5814 5814 5815 5815 5815 5816 5816 5815 5816 5816 5817 5821 5821 5818 5818 5818 5818 5818 5818 5819 5819 5819 5819 5818 5819 5820 5820 5818 5818 5818 5817 5819 5819 5819 5819 5819 5819 5820 5820 5820 5821 5820 5820 5819 5819 5819 5819 5819 5819 5819 5819
5765 5766 5768 5769 5772 5774 5776 5777 5779 5781 5783 5784 5785 5787 5787 5788 5788 5790 5791 5792 5794 5795 5796 5798 5799 5800 5802 5802 5803 5804 5805 5806 5807 5807 5808 5809 5809 5810 5810 5811 5811 5811 5811 5811 5811 5811 5811 5814 5817 5815 5814 5815 5815 5814 5814 5814 5815 5815 5815 5814 5815 5816 5815 5814 5814 5814 5814 5814 5814 5815 5816 5816 5815 5815 5816 5816 5816 5817 5816 5816 5816 5816 5815 5815 5815 5815 5815 5815
5758 5761 5762 5764 5766 5768 5770 5772 5773 5775 5778 5779 5780 5781 5781 5782 5783 5784 5784 5785 5788 5791 5791 5793 5794 5795 5797 5797 5798 5799 5800 5801 5802 5803 5804 5804 5805 5806 5806 5807 5807 5807 5807 5807 5807 5807 5807 5810 5811 5810 5810 5811 5810 5810 5810 5810 5810 5810 5810 5810 5811 5812 5810 5809 5810 5810 5809 5810 5810 5810 5811 5811 5812 5812 5812 5812 5812 5812 5811 5811 5811 5811 5811 5811 5811 5811 5811 5811
5752 5754 5756 5758 5760 5762 5764 5766 5768 5771 5773 5774 5776 5776 5775 5776 5777 5778 5778 5778 5781 5785 5787 5787 5789 5790 5792 5792 5793 5794 5795 5796 5797 5798 5800 5800 5801 5801 5801 5802 5802 5802 5803 5803 5803 5802 5803 5805 5806 5806 5806 5806 5805 5806 5806 5806 5806 5806 5806 5806 5807 5807 5806 5805 5805 5805 5805 5805 5806 5805 5805 5806 5808 5808 5808 5808 5808 5807 5807 5807 5807 5807 5806 5806 5806 5807 5807 5807
5744 5747 5749 5751 5753 5755 5757 5760 5764 5766 5767 5770 5770 5769 5769 5771 5771 5771 5772 5771 5773 5779 5782 5783 5783 5785 5786 5786 5787 5789 5790 5791 5793 5794 5795 5795 5796 5796 5797 5797 5797 5798 5799 5799 5798 5797 5798 5800 5801 5801 5801 5801 5801 5801 5802 5802 5801 5801 5802 5802 5802 5802 5802 5801 5801 5800 5800 5800 5801 5800 5799 5801 5803 5804 5804 5804 5803 5803 5803 5803 5803 5803 5803 5803 5803 5803 5803 5803
5736 5738 5741 5743 5746 5748 5750 5755 5759 5760 5762 5765 5763 5762 5764 5765 5765 5765 5766 5764 5765 5772 5776 5778 5778 5778 5780 5781 5783 5784 5784 5786 5789 5789 5790 5791 5791 5792 5792 5792 5793 5794 5794 5794 5792 5792 5795 5796 5796 5796 5796 5796 5796 5797 5798 5797 5795 5796 5798 5798 5798 5797 5797 5796 5796 5795 5795 5795 5796 5796 5795 5796 5797 5798 5799 5799 5799 5799 5799 5799 5799 5799 5800 5800 5800 5800 5800 5799
5729 5730 5733 5735 5738 5741 5744 5749 5752 5753 5757 5757 5755 5756 5758 5758 5758 5759 5759 5757 5758 5765 5769 5771 5772 5773 5775 5777 5778 5779 5778 5781 5784 5784 5785 5786 5787 5787 5787 5787 5788 5789 5789 5788 5787 5788 5791 5791 5791 5791 5791 5791 5792 5793 5792 5791 5790 5792 5794 5793 5793 5792 5792 5791 5791 5790 5790 5790 5790 5791 5792 5791 5791 5793 5794 5794 5794 5795 5795 5795 5795 5796 5796 5796 5796 5796 5795 5795
5722 5724 5726 5729 5731 5734 5738 5741 5744 5747 5749 5748 5748 5749 5750 5751 5751 5753 5753 5750 5752 5759 5761 5762 5766 5769 5771 5771 5773 5773 5774 5776 5778 5779 5780 5781 5781 5782 5782 5783 5784 5783 5783 5783 5782 5784 5785 5785 5786 5787 5786 5786 5787 5787 5787 5786 5786 5787 5788 5788 5788 5788 5787 5786 5786 5785 5785 5785 5785 5788 5789 5787 5786 5787 5789 5790 5791 5791 5791 5791 5791 5791 5791 5791 5791 5791 5790 5790
5716 5717 5720 5723 5724 5728 5731 5734 5738 5740 5740 5740 5741 5741 5743 5744 5745 5747 5745 5743 5748 5753 5752 5753 5758 5764 5766 5766 5767 5768 5770 5771 5772 5773 5775 5775 5776 5777 5777 5778 5778 5777 5777 5777 5778 5779 5779 5780 5781 5781 5781 5781 5781 5781 5781 5781 5781 5782 5783 5783 5783 5783 5782 5781 5781 5781 5781 5780 5782 5785 5785 5782 5780 5781 5783 5785 5786 5787 5787 5787 5787 5787 5786 5786 5786 5786 5785 5784
5709 5712 5715 5716 5718 5721 5724 5728 5732 5732 5732 5733 5734 5735 5736 5736 5739 5740 5736 5738 5745 5745 5744 5747 5751 5756 5760 5761 5762 5763 5764 5766 5766 5768 5769 5769 5771 5771 5772 5772 5771 5771 5771 5771 5772 5773 5774 5774 5775 5775 5776 5776 5775 5775 5776 5776 5776 5777 5777 5777 5777 5777 5776 5776 5776 5776 5776 5776 5779 5780 5779 5778 5776 5775 5777 5778 5779 5781 5782 5782 5782 5782 5782 5781 5781 5780 5780 5779
5703 5705 5707 5709 5713 5715 5718 5723 5725 5725 5724 5725 5727 5727 5728 5730 5732 5730 5729 5736 5739 5736 5739 5743 5743 5747 5751 5755 5757 5758 5759 5760 5761 5762 5763 5764 5764 5765 5766 5765 5765 5765 5764 5765 5767 5768 5768 5768 5768 5769 5769 5769 5770 5770 5770 5770 5771 5772 5772 5772 5772 5771 5771 5771 5771 5772 5772 5772 5774 5774 5774 5773 5772 5772 5772 5773 5773 5774 5774 5775 5775 5776 5776 5775 5775 5774 5774 5773
5697 5698 5700 5702 5706 5708 5712 5716 5717 5715 5715 5717 5718 5718 5719 5721 5719 5720 5726 5732 5730 5728 5734 5737 5736 5739 5743 5747 5750 5752 5753 5754 5755 5756 5757 5757 5758 5758 5759 5758 5759 5758 5758 5760 5761 5761 5762 5762 5762 5762 5763 5764 5764 5764 5765 5765 5766 5766 5766 5766 5766 5766 5766 5766 5766 5767 5768 5768 5768 5768 5768 5767 5768 5768 5768 5768 5768 5768 5768 5768 5768 5768 5768 5768 5768 5767 5767 5766
5691 5692 5693 5695 5698 5701 5705 5708 5707 5706 5707 5709 5708 5708 5710 5707 5707 5717 5723 5723 5721 5724 5729 5730 5730 5733 5734 5738 5742 5744 5746 5747 5748 5749 5749 5750 5750 5751 5751 5751 5752 5753 5752 5754 5754 5754 5755 5756 5756 5756 5758 5758 5758 5759 5759 5760 5760 5760 5760 5761 5761 5761 5761 5761 5762 5763 5763 5763 5763 5763 5762 5761 5762 5764 5764 5764 5763 5762 5762 5763 5762 5762 5762 5761 5761 5761 5760 5759
5684 5684 5685 5689 5693 5694 5696 5699 5698 5698 5698 5698 5698 5699 5697 5696 5704 5715 5715 5714 5717 5720 5722 5724 5725 5726 5727 5729 5733 5736 5738 5739 5740 5741 5742 5742 5743 5743 5744 5745 5746 5746 5746 5747 5747 5748 5749 5750 5751 5752 5752 5753 5753 5754 5754 5754 5754 5754 5755 5756 5756 5757 5758 5758 5758 5757 5758 5758 5758 5758 5757 5757 5758 5759 5759 5759 5758 5758 5758 5758 5757 5757 5756 5756 5756 5755 5755 5754
5678 5677 5678 5682 5686 5687 5690 5691 5691 5691 5689 5689 5689 5687 5685 5692 5703 5708 5706 5709 5713 5713 5717 5719 5718 5719 5720 5721 5724 5727 5729 5731 5733 5734 5734 5735 5736 5736 5737 5738 5738 5739 5740 5740 5741 5743 5743 5744 5746 5746 5747 5747 5748 5748 5748 5749 5749 5749 5750 5750 5752 5753 5754 5754 5753 5753 5753 5753 5753 5753 5753 5753 5754 5753 5753 5752 5752 5753 5752 5752 5752 5752 5752 5751 5751 5750 5749 5748
5670 5669 5671 5675 5679 5682 5683 5684 5684 5683 5682 5682 5679 5675 5681 5692 5698 5700 5701 5705 5706 5708 5711 5712 5712 5712 5713 5714 5716 5719 5721 5723 5725 5726 5727 5728 5729 5730 5731 5731 5732 5733 5734 5735 5736 5737 5738 5739 5741 5741 5742 5743 5743 5743 5744 5744 5744 5745 5745 5746 5748 5749 5749 5748 5748 5748 5748 5746 5747 5748 5748 5749 5748 5747 5747 5746 5746 5747 5746 5746 5746 5746 5746 5746 5745 5744 5743 5742
5662 5663 5666 5669 5673 5675 5676 5678 5678 5675 5674 5673 5668 5670 5681 5690 5691 5694 5696 5696 5698 5702 5703 5703 5705 5706 5706 5708 5710 5712 5714 5716 5717 5719 5720 5721 5722 5724 5726 5726 5727 5728 5729 5730 5730 5731 5732 5734 5735 5737 5738 5738 5738 5739 5739 5739 5740 5740 5742 5743 5743 5743 5743 5743 5743 5742 5742 5741 5741 5742 5742 5742 5742 5740 5741 5741 5740 5740 5740 5740 5740 5741 5741 5740 5738 5737 5737 5736
5656 5657 5660 5663 5666 5669 5670 5671 5670 5669 5667 5663 5660 5668 5679 5682 5684 5687 5688 5689 5692 5694 5695 5697 5699 5700 5701 5703 5704 5706 5707 5708 5710 5712 5714 5715 5716 5718 5720 5721 5722 5723 5723 5724 5724 5726 5727 5728 5730 5731 5732 5733 5734 5734 5734 5734 5736 5737 5738 5738 5738 5737 5737 5738 5737 5737 5736 5735 5735 5735 5735 5735 5734 5734 5734 5734 5733 5733 5734 5733 5734 5734 5734 5733 5732 5731 5730 5730
5649 5649 5653 5659 5662 5662 5663 5664 5663 5662 5658 5652 5654 5665 5672 5673 5676 5679 5680 5682 5685 5686 5689 5692 5693 5694 5696 5697 5699 5700 5700 5702 5704 5706 5707 5709 5710 5713 5714 5715 5716 5717 5718 5719 5720 5721 5722 5723 5723 5725 5727 5728 5728 5728 5729 5731 5732 5732 5732 5731 5731 5731 5731 5732 5732 5731 5730 5729 5728 5728 5728 5727 5727 5726 5726 5726 5726 5726 5727 5727 5727 5727 5726 5725 5725 5724 5724 5723
5642 5642 5646 5652 5655 5656 5657 5656 5653 5651 5648 5647 5651 5660 5666 5667 5669 5672 5674 5676 5678 5679 5683 5685 5686 5688 5690 5692 5694 5695 5695 5696 5698 5700 5701 5703 5704 5707 5708 5709 5711 5712 5713 5714 5714 5715 5716 5718 5719 5720 5721 5722 5723 5724 5725 5726 5725 5725 5725 5725 5725 5725 5725 5725 5725 5725 5723 5722 5722 5721 5720 5719 5718 5717 5717 5718 5718 5718 5719 5720 5720 5719 5718 5718 5718 5717 5717 5716
5635 5635 5639 5645 5646 5648 5649 5645 5642 5642 5642 5645 5649 5654 5660 5662 5662 5666 5668 5669 5671 5673 5676 5678 5679 5681 5683 5686 5688 5689 5690 5690 5692 5694 5695 5697 5699 5701 5703 5704 5705 5706 5707 5708 5709 5710 5711 5713 5714 5714 5715 5716 5717 5719 5719 5719 5719 5719 5719 5719 5719 5719 5719 5718 5716 5717 5717 5716 5716 5714 5713 5713 5710 5708 5709 5711 5711 5710 5711 5713 5713 5712 5710 5710 5711 5711 5710 5709
5628 5629 5634 5637 5637 5639 5639 5634 5634 5637 5636 5640 5646 5649 5652 5655 5657 5660 5661 5663 5665 5667 5670 5671 5673 5674 5676 5678 5681 5683 5684 5685 5686 5688 5689 5692 5693 5694 5696 5697 5697 5699 5700 5701 5703 5704 5705 5706 5707 5708 5709 5710 5711 5712 5712 5712 5712 5712 5712 5713 5714 5713 5712 5710 5709 5710 5709 5709 5709 5706 5706 5709 5706 5702 5703 5704 5705 5705 5704 5705 5706 5704 5702 5703 5703 5702 5701 5700
5620 5623 5628 5629 5629 5632 5630 5625 5627 5630 5631 5636 5641 5641 5643 5647 5651 5653 5655 5657 5659 5661 5663 5665 5667 5668 5670 5671 5674 5676 5679 5679 5680 5682 5684 5686 5687 5688 5688 5689 5690 5691 5692 5694 5696 5697 5698 5699 5701 5702 5702 5703 5703 5704 5704 5704 5705 5706 5707 5708 5707 5706 5706 5704 5702 5703 5701 5701 5702 5698 5699 5703 5701 5698 5698 5696 5698 5700 5699 5699 5698 5696 5695 5695 5694 5693 5692 5691
5614 5617 5620 5621 5622 5623 5621 5618 5621 5624 5627 5632 5633 5633 5636 5640 5643 5646 5649 5652 5653 5654 5657 5658 5660 5662 5664 5665 5666 5669 5672 5673 5674 5676 5678 5679 5680 5681 5681 5682 5683 5683 5685 5687 5689 5690 5691 5692 5694 5694 5694 5694 5695 5695 5696 5698 5699 5701 5701 5701 5700 5699 5699 5697 5696 5696 5693 5694 5695 5691 5691 5695 5694 5692 5692 5690 5691 5694 5693 5692 5691 5689 5688 5687 5686 5685 5684 5682
5608 5609 5611 5613 5614 5614 5613 5614 5617 5619 5622 5625 5626 5628 5630 5632 5635 5640 5642 5644 5646 5648 5650 5652 5654 5656 5657 5659 5660 5662 5665 5667 5667 5669 5670 5671 5673 5674 5674 5675 5676 5676 5677 5679 5681 5683 5683 5684 5686 5686 5685 5687 5688 5689 5691 5693 5693 5692 5692 5692 5692 5692 5691 5690 5689 5688 5685 5685 5686 5684 5685 5688 5688 5688 5684 5684 5687 5687 5685 5684 5684 5682 5680 5678 5678 5677 5675 5674
5601 5601 5604 5606 5607 5607 5607 5609 5612 5614 5616 5619 5620 5621 5623 5625 5630 5634 5635 5637 5639 5642 5644 5645 5648 5649 5650 5652 5654 5655 5657 5659 5660 5662 5664 5665 5665 5666 5667 5668 5668 5669 5670 5672 5674 5675 5675 5677 5679 5680 5680 5682 5682 5682 5684 5685 5685 5684 5685 5685 5685 5685 5684 5683 5681 5680 5678 5676 5676 5679 5680 5679 5683 5684 5678 5677 5680 5678 5675 5675 5675 5673 5670 5669 5669 5668 5667 5665
5593 5593 5596 5600 5600 5600 5602 5604 5607 5609 5611 5613 5613 5615 5618 5621 5624 5627 5629 5630 5633 5636 5638 5638 5640 5642 5644 5646 5648 5649 5650 5652 5653 5655 5657 5658 5659 5659 5660 5661 5661 5662 5663 5665 5666 5667 5668 5669 5672 5674 5675 5677 5675 5674 5674 5675 5676 5676 5677 5678 5679 5678 5677 5675 5674 5674 5674 5669 5668 5675 5675 5671 5675 5677 5671 5671 5673 5671 5669 5669 5667 5665 5663 5663 5662 5660 5658 5657
5586 5587 5590 5593 5593 5594 5597 5600 5602 5604 5606 5608 5608 5610 5614 5616 5618 5621 5623 5624 5627 5630 5631 5631 5634 5637 5639 5641 5642 5642 5645 5646 5646 5648 5650 5651 5652 5652 5653 5654 5654 5655 5657 5658 5659 5660 5660 5662 5665 5665 5667 5669 5667 5665 5666 5667 5668 5669 5669 5671 5673 5672 5669 5668 5668 5669 5667 5663 5663 5669 5667 5664 5668 5669 5664 5664 5667 5664 5662 5661 5658 5657 5657 5656 5655 5652 5651 5650
5579 5581 5583 5586 5587 5588 5591 5594 5597 5598 5600 5602 5603 5605 5609 5611 5613 5616 5618 5618 5620 5623 5623 5624 5628 5631 5632 5634 5634 5635 5638 5639 5640 5641 5642 5643 5644 5645 5646 5646 5646 5648 5650 5650 5651 5651 5651 5654 5656 5656 5658 5660 5659 5657 5658 5659 5660 5662 5663 5666 5668 5665 5661 5660 5662 5663 5662 5658 5659 5659 5657 5659 5665 5662 5657 5658 5658 5654 5653 5652 5650 5649 5649 5648 5647 5645 5644 5642
5571 5574 5575 5577 5579 5581 5583 5586 5589 5591 5593 5595 5597 5600 5603 5605 5607 5609 5611 5612 5613 5615 5617 5619 5621 5623 5624 5625 5627 5629 5632 5633 5633 5634 5635 5635 5636 5638 5639 5639 5639 5641 5642 5642 5642 5642 5642 5645 5646 5647 5648 5649 5650 5650 5650 5651 5652 5653 5658 5663 5660 5656 5655 5656 5657 5658 5656 5653 5653 5651 5649 5654 5659 5655 5649 5648 5646 5644 5644 5644 5642 5641 5640 5641 5640 5638 5635 5633
5563 5565 5567 5569 5571 5573 5575 5578 5581 5583 5585 5588 5591 5594 5596 5599 5601 5602 5603 5605 5606 5608 5610 5612 5613 5615 5616 5618 5621 5623 5624 5624 5625 5626 5627 5628 5629 5630 5631 5632 5632 5633 5634 5634 5635 5635 5635 5636 5637 5638 5637 5639 5643 5642 5641 5644 5643 5643 5653 5658 5652 5649 5653 5653 5651 5651 5649 5646 5646 5643 5641 5646 5649 5645 5640 5638 5636 5635 5635 5634 5632 5632 5632 5632 5631 5628 5625 5623
5554 5556 5559 5561 5563 5565 5568 5571 5573 5575 5579 5582 5585 5587 5589 5591 5593 5594 5595 5597 5599 5601 5603 5604 5605 5607 5609 5612 5615 5615 5615 5616 5617 5618 5619 5621 5622 5623 5624 5625 5625 5626 5627 5628 5628 5628 5629 5629 5630 5630 5628 5630 5634 5634 5634 5636 5632 5634 5647 5652 5647 5645 5646 5643 5642 5642 5641 5639 5637 5634 5635 5637 5637 5634 5632 5630 5629 5627 5626 5624 5623 5623 5623 5622 5620 5618 5615 5614